Point Hope, AK (99766)

2:38 PM AKDT on October 17, 2017 (GMT -0800)
Point Hope | | Change Station

Elev 13 ft 68.35 °N, 166.80 °W | Updated 14 minutes ago

Mostly Cloudy
Mostly Cloudy
34 °F
Feels Like 24 °F
N
16
Wind Variable Wind from North

Today
High -- | Low -- °F
--% Chance of Precip.
Yesterday
High -- | Low -- °F
Precip. -- in
Pressure 29.59 in
Visibility 9.0 miles
Clouds Few 900 ft
Mostly Cloudy 1700 ft
Windchill 24 °F
Dew Point 30 °F
Humidity 87%
Rainfall 0.00 in
Snow Depth Not available.
10:22 AM 7:20 PM
Waning Crescent, 4% visible
SPECI PAPO 172224Z AUTO 36014KT 9SM FEW009 BKN017 01/M01 A2959 RMK AO2 SNE20 P0000 FZRANO
Pressure 29.59 in
Visibility 9.0 miles
Clouds Few 900 ft
Mostly Cloudy 1700 ft
Windchill 24 °F
Dew Point 30 °F
Humidity 87%
Rainfall 0.00 in
Snow Depth Not available.
10:22 AM 7:20 PM
Waning Crescent, 4% visible
SPECI PAPO 172224Z AUTO 36014KT 9SM FEW009 BKN017 01/M01 A2959 RMK AO2 SNE20 P0000 FZRANO

Get Severe Weather Alerts

Thanks for signing up!

Be on the lookout for a verification email in your inbox.

You'll start receiving the daily forecast at 6 AM.

×

10-Day Weather Forecast

Almanac

Astronomy

Oct. 17, 2017 Rise Set
Actual Time
Civil Twilight
Nautical Twilight
Astronomical Twilight
Moon
Length of Visible Light
Length of Day
Tomorrow will be .
, % of the Moon is Illuminated

Today's Extremes

State Highs State Lows

Community

WunderPhotos

Category 6

Welcome to Category 6. This is the collective home for Weather Underground's featured writeups by Dr. Jeff Masters (right), Bob Henson (left), Chris Burt, and other regular contributors.

Nearby

Air Quality

  Air Quality AQ Index Pollutant
Not available.

Snow Depth

Station Depth Elevation

Earthquake Activity

City Distance Mag. Time & Date
Minimum magnitude displayed is 2.5.

Coastal Water Temperatures

Place Temperature

Stations

Nearby Weather Stations

Station Location Temp. Windchill Dew Point Humidity Wind Precip. Elev Updated Type
                   

Watches & Warnings

There are currently no watches in effect.